Location: Rounton
(54.4000°N, 1.3500°W)
Time: 08:59:17
(UTC+01:00)

deb Agena D - Pass Details

Date: 14 June 2023
Orbit: 996 x 1023 km, 100.1° (Epoch: 29 September)

Event Time Altitude Azimuth Distance (km) Brightness Sun altitude
Exits shadow 02:58:15 - 228° (SW) 2,934 ? -8.7°
Reaches altitude 10° 02:58:55 10° 232° (SW) 2,772 ? -8.6°
Maximum altitude 03:02:59 18° 274° (W) 2,247 ? -8.4°
Drops below altitude 10° 03:07:05 10° 315° (NW) 2,777 ? -8.1°
Sets 03:10:30 0° 334° (NNW) 3,731 ? -7.8°
